星链-34994(STARLINK-34994)

导读

STARLINK-34994是美国于2025年10月8日发射的星链卫星,星链是美国太空探索技术公司(SpaceX)打造的低轨卫星互联网星座项目,旨在为全球提供高速互联网接入服务,该卫星加入低轨星座网络后,进一步拓展了星链系统的全球覆盖范围与服务能力。

基本信息
目录编号:
65924
目录名称:
STARLINK-34994
国际标识:
2025-225Q
轨道中心:
EARTH
卫星名称:
星链-34994
卫星全名:
星链-34994(STARLINK-34994)
卫星状态:
在轨 (已飞行248 天)
发射日期:
2025-10-08 UTC
国别 :
美国 (US)
星等 :
--
轨道信息
数据来源 国际轨道数据 AOE轨道数据
星历时间 2026-06-13T09:07:33+0800
11小时前
查看轨道信息
2026-06-13T00:00:00+0800
20小时前
查看轨道信息
半长轴 6840.81km 6840.765km
偏心率 0.0001093 0.0001081
轨道倾角 53.160° 53.159°
近地点辐角 76.276° 78.559°
升交点赤经 82.334° 84.110°
平近点角 283.837° 340.059°
近地点 461.925km 461.888km
远地点 463.421km 463.368km
周期 93.847分钟 93.846分钟
每日圈数 15.344104 15.344256
详细信息
固有亮度:
5
最大亮度:
2.5
卫星平台:
Starlink V1.0
覆盖范围:
全球
运营商:
太空探索技术公司
运营商所在国:
美国
制造商(研发单位):
太空探索技术公司
制造商所在国:
美国
使用方式:
暂无
卫星简介
Starlink 计划是 SpaceX 推出的全球卫星互联网项目,通过发射低轨道卫星,为全球尤其是偏远地区提供高速、低延迟的互联网服务。自 2019 年起,Starlink 已部署数千颗卫星,旨在缩小全球数字鸿沟,推动互联网普及。该项目还为军事、航空等行业提供通信支持,带来广泛经济效益。
2D轨道图
3D轨道图
轨道高度分析图
轨道倾角分析图
轨道综合分析图
查看轨道综合分析图